This demonstration page uses our WeatherBlox Daily Observations layout. Learn more.

Left ArrowRight Arrow

Hourly Observations for September 15, 2021

Temp ( °F °C ) Dew Point ( °F °C ) Humidity (%) Winds ( mph kmh ) Pressure ( in mb ) Visibility ( mi km ) Precip ( " mm )
12:54 am 00:54 Clear 56 13.3 53 11.7 90 90 N 5 7 30.01 1016 10 16 N/A
1:54 am 01:54 Clear 54 12.2 52 11.1 93 93 N 3 6 30.01 1016 10 16 N/A
2:54 am 02:54 Clear 54 12.2 52 11.1 93 93 N N/A 30.01 1016 10 16 N/A
3:54 am 03:54 Clear 53 11.7 51 10.6 93 93 N N/A 30.00 1016 10 16 N/A
4:54 am 04:54 Clear 51 10.6 49 9.4 92 92 N N/A 30.00 1016 7 11 N/A
5:54 am 05:54 Clear 52 11.1 49 9.4 89 89 N 6 9 30.01 1016 10 16 N/A
6:54 am 06:54 Clear 49 9.4 47 8.3 93 93 N 3 6 30.04 1017 9 14 N/A
7:50 am 07:50 Mostly Sunny 52 11 50 10 94 94 N N/A 30.07 1018 8 13 N/A
7:54 am 07:54 Sunny 53 11.7 50 10 89 89 N N/A 30.05 1018 8 13 N/A
8:54 am 08:54 Sunny 61 16.1 57 13.9 87 87 N N/A 30.05 1018 8 13 N/A
9:54 am 09:54 Sunny 68 20 59 15 73 73 SSE 3 6 30.04 1017 10 16 N/A
10:54 am 10:54 Sunny 73 22.8 61 16.1 66 66 SSE 10 17 30.03 1017 10 16 N/A
11:54 am 11:54 Sunny 78 25.6 58 14.4 50 50 SSE 20 31 30.01 1016 10 16 N/A
12:54 pm 12:54 Sunny 80 26.7 56 13.3 44 44 SE 16 26 29.98 1015 10 16 N/A
1:54 pm 13:54 Sunny 83 28.3 54 12.2 37 37 SSE 17 28 29.96 1014 10 16 N/A
2:54 pm 14:54 Sunny 84 28.9 54 12.2 36 36 SSE 20 31 29.91 1013 10 16 N/A
3:54 pm 15:54 Sunny 85 29.4 55 12.8 36 36 SSE 16 26 29.88 1012 10 16 N/A
4:54 pm 16:54 Sunny 85 29.4 57 13.9 39 39 S 13 20 29.88 1012 10 16 N/A
5:54 pm 17:54 Sunny 83 28.3 59 15 44 44 SSW 14 22 29.88 1012 10 16 N/A
6:54 pm 18:54 Mostly Sunny 80 26.7 61 16.1 52 52 S 9 15 29.87 1012 10 16 N/A
7:54 pm 19:54 Clear 78 25.6 61 16.1 56 56 SE 12 19 29.88 1012 10 16 N/A
8:54 pm 20:54 Clear 77 25 59 15 54 54 SSE 18 30 29.88 1012 10 16 N/A
9:54 pm 21:54 Clear 74 23.3 60 15.6 62 62 SSE 16 26 29.88 1012 10 16 N/A
10:54 pm 22:54 Clear 72 22.2 62 16.7 71 71 S 14 22 29.89 1012 10 16 N/A
11:54 pm 23:54 Clear 71 21.7 62 16.7 73 73 S 12 19 29.88 1012 10 16 N/A

Powered by AerisWeather